Regional Weather Roundup
Issued by NWS

Home | Current Version | Previous Version | Text Only | Print | Product List | Glossary On
Versions: 1 2 3 4 5 6 7 8 9 10 11 12 13 14 15 16 17 18 19 20 21 22 23 24 25 26 27 28 29 30 31 32 33 34 35 36 37 38 39 40 41 42 43 44 45 46 47 48 49 50
000
ASUS43 KTOP 101608
RWRKS

WEATHER ROUNDUP FOR KANSAS
NATIONAL WEATHER SERVICE GOODLAND KS
1000 AM CST SAT DEC 10 2016

NOTE:  "FAIR" INDICATES FEW OR NO CLOUDS BELOW 12,000 FEET WITH NO
SIGNIFICANT WEATHER AND/OR OBSTRUCTIONS TO VISIBILITY.

KSZ001>006-013>018-027>032-041>047-101700-
NORTHWEST KANSAS

CITY           SKY/WX    TMP DP  RH WIND       PRES   REMARKS
GOODLAND       CLOUDY    21  19  92 S10       29.97F FOG     WCI  10
HAYS           CLOUDY    27  18  69 S14       30.17F WCI  16
HILL CITY      CLOUDY    24  16  71 SE12      30.14F WCI  13
RUSSELL        CLOUDY    27  17  66 S15       30.19S WCI  15
$$

KSZ061>065-074>080-084>089-101700-
SOUTHWEST KANSAS

CITY           SKY/WX    TMP DP  RH WIND       PRES   REMARKS
DODGE CITY     CLOUDY    27  19  72 S21       30.11F WCI  13
ELKHART          N/A     26  19  74 S7          N/A
GARDEN CITY    CLOUDY    26  19  74 S16       30.07F WCI  14
GREAT BEND     CLOUDY    29  18  63 S17       30.20S WCI  17
LIBERAL        CLOUDY    28  21  74 S12       30.08S WCI  18
PRATT          CLOUDY    29  17  60 S16G24    30.20R WCI  17
$$

KSZ066>073-081>083-090>101-101700-
SOUTHEAST KANSAS

CITY           SKY/WX    TMP DP  RH WIND       PRES   REMARKS
CHANUTE        CLOUDY    35  20  54 S12       30.37F WCI  27
COFFEYVILLE    CLOUDY    37  21  52 S8        30.40F
HUTCHINSON     CLOUDY    40  20  44 SE17      30.25F WCI  31
MEDICINE LODGE   N/A     31  19  61 S13G25    30.22F WCI  21
NEWTON         CLOUDY    32  21  64 S13       30.28S WCI  22
PARSONS        CLOUDY    36  20  52 S7        30.39F
WICHITA INTL   CLOUDY    34  20  56 S16       30.27F WCI  24
WICHITA JABRA  CLOUDY    33  21  61 SE12      30.28F WCI  24
WICHITA MCCONL CLOUDY    35  20  52 S14       30.28F WCI  26
WINFIELD       CLOUDY    36  21  54 S17       30.30F WCI  26
$$

KSZ007>012-019>026-033>040-048>060-102>105-101700-
NORTHEAST KANSAS

CITY           SKY/WX    TMP DP  RH WIND       PRES   REMARKS
CONCORDIA      CLOUDY    27  18  69 SE12      30.27F WCI  17
EMPORIA        CLOUDY    31  19  61 S10       30.34S WCI  22
LAWRENCE       CLOUDY    30  21  69 SE8       30.40S
MANHATTAN      CLOUDY    31  17  56 SE8       30.31F
MARYSVILLE     CLOUDY    32  18  55 SE8       30.32F
OLATHE IND     CLOUDY    30  19  63 SE9       30.40S
OLATHE EXE     CLOUDY    29  17  61 S6        30.39F
SALINA         CLOUDY    31  18  58 SE10      30.29F WCI  22
TOPEKA BILLARD CLOUDY    31  19  61 SE8       30.37F
TOPEKA FORBES  PTSUNNY   32  19  58 SE10      30.35F WCI  24
$$



USA.gov is the U.S. government's official web portal to all federal, state and local government web resources and services.